Tracking 30058 objects as of 9-Dec-2024
HD Live streaming from Space Station
objects crossing your sky now

USA 12

Track USA 12 now!
USA 12 is classified as:


NORAD ID: 16117
Int'l Code: 1985-092C
Perigee: 36,134.6 km
Apogee: 36,178.8 km
Inclination: 14.6 °
Period: 1,454.7 minutes
Semi major axis: 42527 km
RCS: Unknown
Launch date: October 3, 1985
Source: United States (US)
Launch site: AIR FORCE EASTERN TEST RANGE (AFETR)
Your satellite tracking list
Your tracking list is empty




NASA's NSSDC Master Catalog

Two Line Element Set (TLE):
1 16117U 85092C   24342.67134317 -.00000090  00000-0  00000-0 0  9997
2 16117  14.5737 350.3381 0005194 144.1043  18.4569  0.98990910 20217
Source of the keplerian elements: McCants